| time (UTC) | temp F | wind direction | speed knots | gust knots | rain 1hr in | rain 24hr in | rain mn in | humidity % | barometer mb |
| 20260505041558 | 57 | 178 | 0.9 | 7.0 | 0.00 | 0.00 | 0.00 | 63 | 1010.7 |
| 20260505041026 | 57 | 205 | 1.7 | 7.0 | 0.00 | 0.00 | 0.00 | 62 | 1010.6 |
| 20260505040530 | 57 | 198 | 0.9 | 5.2 | 0.00 | 0.00 | 0.00 | 62 | 1010.6 |
| 20260505040042 | 57 | 198 | 1.7 | 4.3 | 0.00 | 0.00 | 0.00 | 61 | 1010.6 |
| 20260505035527 | 57 | 207 | 0.9 | 4.3 | 0.00 | 0.00 | 0.00 | 61 | 1010.5 |
| 20260505035028 | 57 | 0 | 0.9 | 4.3 | 0.00 | 0.00 | 0.00 | 60 | 1010.5 |
| 20260505034548 | 57 | 145 | 1.7 | 4.3 | 0.00 | 0.00 | 0.00 | 60 | 1010.6 |
| 20260505034026 | 57 | 150 | 1.7 | 4.3 | 0.00 | 0.00 | 0.00 | 60 | 1010.5 |
| 20260505033529 | 58 | 176 | 0.9 | 4.3 | 0.00 | 0.00 | 0.00 | 59 | 1010.5 |
| 20260505033045 | 58 | 0 | 1.7 | 5.2 | 0.00 | 0.00 | 0.00 | 59 | 1010.4 |
| 20260505032552 | 58 | 0 | 0.9 | 5.2 | 0.00 | 0.00 | 0.00 | 59 | 1010.5 |
| 20260505032030 | 58 | 257 | 0.9 | 5.2 | 0.00 | 0.00 | 0.00 | 59 | 1010.4 |
| 20260505031542 | 58 | 231 | 0.9 | 7.0 | 0.00 | 0.00 | 0.00 | 58 | 1010.4 |
| 20260505031026 | 58 | 180 | 1.7 | 7.0 | 0.00 | 0.00 | 0.00 | 57 | 1010.4 |
| 20260505030527 | 58 | 189 | 1.7 | 9.6 | 0.00 | 0.00 | 0.00 | 57 | 1010.4 |
| 20260505030042 | 58 | 203 | 1.7 | 9.6 | 0.00 | 0.00 | 0.00 | 57 | 1010.4 |
| 20260505025529 | 58 | 177 | 0.9 | 4.3 | 0.00 | 0.00 | 0.00 | 56 | 1010.4 |
| 20260505025025 | 59 | 205 | 0.9 | 5.2 | 0.00 | 0.00 | 0.00 | 56 | 1010.4 |
| 20260505024546 | 59 | 237 | 0.9 | 8.7 | 0.00 | 0.00 | 0.00 | 55 | 1010.4 |
| 20260505024028 | 59 | 244 | 2.6 | 8.7 | 0.00 | 0.00 | 0.00 | 55 | 1010.4 |
| 20260505023525 | 59 | 225 | 0.9 | 6.1 | 0.00 | 0.00 | 0.00 | 54 | 1010.6 |
| 20260505023046 | 59 | 198 | 0.9 | 5.2 | 0.00 | 0.00 | 0.00 | 54 | 1010.5 |
| 20260505022530 | 59 | 198 | 0.9 | 7.8 | 0.00 | 0.00 | 0.00 | 54 | 1010.5 |
| 20260505022028 | 59 | 30 | 1.7 | 7.8 | 0.00 | 0.00 | 0.00 | 53 | 1010.5 |
| 20260505021547 | 60 | 182 | 2.6 | 6.1 | 0.00 | 0.00 | 0.00 | 53 | 1010.5 |
| 20260505021026 | 60 | 174 | 1.7 | 7.0 | 0.00 | 0.00 | 0.00 | 53 | 1010.5 |
| 20260505020528 | 60 | 194 | 0.9 | 7.0 | 0.00 | 0.00 | 0.00 | 52 | 1010.4 |
| 20260505020045 | 60 | 169 | 1.7 | 7.0 | 0.00 | 0.00 | 0.00 | 52 | 1010.5 |
| 20260505015526 | 60 | 180 | 1.7 | 6.1 | 0.00 | 0.00 | 0.00 | 51 | 1010.4 |
| 20260505015028 | 60 | 213 | 1.7 | 8.7 | 0.00 | 0.00 | 0.00 | 51 | 1010.4 |
| 20260505014545 | 61 | 139 | 1.7 | 8.7 | 0.00 | 0.00 | 0.00 | 51 | 1010.4 |
| 20260505014026 | 61 | 208 | 1.7 | 8.7 | 0.00 | 0.00 | 0.00 | 51 | 1010.5 |
| 20260505013532 | 61 | 262 | 0.9 | 10.4 | 0.00 | 0.00 | 0.00 | 51 | 1010.4 |
| 20260505013041 | 61 | 207 | 0.9 | 10.4 | 0.00 | 0.00 | 0.00 | 51 | 1010.2 |
| 20260505012528 | 61 | 165 | 0.9 | 5.2 | 0.00 | 0.00 | 0.00 | 50 | 1010.3 |
| 20260505012029 | 61 | 217 | 0.9 | 6.1 | 0.00 | 0.00 | 0.00 | 50 | 1010.1 |
| 20260505011542 | 62 | 249 | 1.7 | 6.1 | 0.00 | 0.00 | 0.00 | 49 | 1010.1 |
| 20260505011029 | 62 | 123 | 1.7 | 5.2 | 0.00 | 0.00 | 0.00 | 49 | 1010.0 |
| 20260505010528 | 62 | 207 | 1.7 | 4.3 | 0.00 | 0.00 | 0.00 | 49 | 1009.9 |
| 20260505010042 | 62 | 201 | 0.9 | 6.1 | 0.00 | 0.00 | 0.00 | 49 | 1009.9 |
| 20260505005528 | 62 | 184 | 0.9 | 8.7 | 0.00 | 0.00 | 0.00 | 48 | 1009.7 |
| 20260505005028 | 63 | 224 | 1.7 | 8.7 | 0.00 | 0.00 | 0.00 | 48 | 1009.7 |
| 20260505004545 | 63 | 208 | 0.9 | 11.3 | 0.00 | 0.00 | 0.00 | 48 | 1009.6 |
| 20260505004027 | 63 | 279 | 1.7 | 11.3 | 0.00 | 0.00 | 0.00 | 48 | 1009.5 |
| 20260505003530 | 63 | 219 | 1.7 | 7.8 | 0.00 | 0.00 | 0.00 | 47 | 1009.3 |
| 20260505003041 | 63 | 207 | 0.9 | 7.8 | 0.00 | 0.00 | 0.00 | 47 | 1009.2 |
| 20260505002531 | 63 | 227 | 1.7 | 8.7 | 0.00 | 0.00 | 0.00 | 47 | 1009.0 |
| 20260505002029 | 64 | 219 | 1.7 | 9.6 | 0.00 | 0.00 | 0.00 | 47 | 1008.8 |
| 20260505001549 | 64 | 201 | 1.7 | 9.6 | 0.00 | 0.00 | 0.00 | 46 | 1008.7 |
| 20260505001028 | 64 | 86 | 1.7 | 7.8 | 0.00 | 0.00 | 0.00 | 46 | 1008.7 |
| 20260505000528 | 64 | 175 | 2.6 | 7.8 | 0.00 | 0.00 | 0.00 | 45 | 1008.5 |
| 20260505000049 | 65 | 327 | 1.7 | 11.3 | 0.00 | 0.00 | 0.00 | 45 | 1008.4 |
| 20260504235528 | 65 | 134 | 1.7 | 11.3 | 0.00 | 0.00 | 0.00 | 44 | 1008.1 |
| 20260504235029 | 65 | 169 | 1.7 | 8.7 | 0.00 | 0.00 | 0.00 | 44 | 1008.1 |
| 20260504234538 | 66 | 196 | 2.6 | 8.7 | 0.00 | 0.00 | 0.00 | 44 | 1008.0 |
| 20260504234028 | 66 | 232 | 3.5 | 8.7 | 0.00 | 0.00 | 0.00 | 43 | 1007.9 |
| 20260504233528 | 66 | 103 | 1.7 | 8.7 | 0.00 | 0.00 | 0.00 | 42 | 1007.9 |
| 20260504233046 | 67 | 281 | 2.6 | 8.7 | 0.00 | 0.00 | 0.00 | 41 | 1007.9 |
| 20260504232529 | 67 | 16 | 2.6 | 8.7 | 0.00 | 0.00 | 0.00 | 41 | 1007.5 |
| 20260504232028 | 67 | 191 | 1.7 | 9.6 | 0.00 | 0.00 | 0.00 | 41 | 1007.6 |
| 20260504231556 | 68 | 214 | 1.7 | 9.6 | 0.00 | 0.00 | 0.00 | 40 | 1007.5 |
| 20260504231031 | 68 | 190 | 2.6 | 7.8 | 0.00 | 0.00 | 0.00 | 39 | 1007.4 |
| 20260504230529 | 68 | 211 | 2.6 | 7.8 | 0.00 | 0.00 | 0.00 | 38 | 1007.3 |
| 20260504230043 | 69 | 213 | 2.6 | 9.6 | 0.00 | 0.00 | 0.00 | 38 | 1007.0 |
| 20260504225528 | 69 | 233 | 1.7 | 9.6 | 0.00 | 0.00 | 0.00 | 37 | 1007.0 |
| 20260504225029 | 69 | 263 | 2.6 | 9.6 | 0.00 | 0.00 | 0.00 | 35 | 1007.0 |
| 20260504224541 | 70 | 260 | 1.7 | 6.1 | 0.00 | 0.00 | 0.00 | 34 | 1006.9 |
| 20260504224032 | 70 | 159 | 0.9 | 5.2 | 0.00 | 0.00 | 0.00 | 34 | 1006.8 |
| 20260504223534 | 70 | 184 | 0.9 | 5.2 | 0.00 | 0.00 | 0.00 | 34 | 1006.8 |
| 20260504223040 | 70 | 190 | 0.9 | 5.2 | 0.00 | 0.00 | 0.00 | 33 | 1006.6 |
| 20260504222528 | 71 | 155 | 0.9 | 5.2 | 0.00 | 0.00 | 0.00 | 34 | 1006.7 |
| 20260504222028 | 71 | 292 | 1.7 | 5.2 | 0.00 | 0.00 | 0.00 | 32 | 1006.8 |
| 20260504221556 | 71 | 0 | 1.7 | 6.1 | 0.00 | 0.00 | 0.00 | 32 | 1006.7 |
| 20260504221026 | 71 | 140 | 1.7 | 6.1 | 0.00 | 0.00 | 0.00 | 33 | 1006.7 |
| 20260504220529 | 71 | 254 | 0.0 | 3.5 | 0.00 | 0.00 | 0.00 | 33 | 1006.7 |
| 20260504220045 | 71 | 189 | 0.9 | 3.5 | 0.00 | 0.00 | 0.00 | 32 | 1006.6 |
| 20260504215529 | 72 | 202 | 0.9 | 4.3 | 0.00 | 0.00 | 0.00 | 32 | 1006.7 |
| 20260504215033 | 72 | 287 | 0.9 | 6.1 | 0.00 | 0.00 | 0.00 | 33 | 1006.6 |
| 20260504214543 | 72 | 151 | 1.7 | 10.4 | 0.00 | 0.00 | 0.00 | 32 | 1006.7 |
| 20260504214033 | 72 | 116 | 2.6 | 12.2 | 0.00 | 0.00 | 0.00 | 32 | 1006.7 |
| 20260504213529 | 72 | 196 | 2.6 | 12.2 | 0.00 | 0.00 | 0.00 | 32 | 1006.7 |
| 20260504213040 | 72 | 163 | 1.7 | 11.3 | 0.00 | 0.00 | 0.00 | 32 | 1006.7 |
| 20260504212532 | 72 | 109 | 2.6 | 8.7 | 0.00 | 0.00 | 0.00 | 31 | 1006.7 |
| 20260504212025 | 72 | 0 | 1.7 | 8.7 | 0.00 | 0.00 | 0.00 | 31 | 1006.7 |
| 20260504211548 | 72 | 163 | 1.7 | 8.7 | 0.00 | 0.00 | 0.00 | 30 | 1006.7 |
| 20260504211027 | 72 | 229 | 1.7 | 7.8 | 0.00 | 0.00 | 0.00 | 32 | 1006.7 |
| 20260504210528 | 72 | 347 | 1.7 | 7.8 | 0.00 | 0.00 | 0.00 | 31 | 1006.6 |
| 20260504210104 | 73 | 170 | 1.7 | 7.0 | 0.00 | 0.00 | 0.00 | 31 | 1006.8 |
| 20260504205528 | 72 | 269 | 1.7 | 7.0 | 0.00 | 0.00 | 0.00 | 31 | 1006.6 |
| 20260504205025 | 72 | 186 | 1.7 | 7.0 | 0.00 | 0.00 | 0.00 | 30 | 1006.7 |
| 20260504204548 | 73 | 253 | 1.7 | 5.2 | 0.00 | 0.00 | 0.00 | 31 | 1006.7 |
| 20260504204029 | 73 | 198 | 1.7 | 7.8 | 0.00 | 0.00 | 0.00 | 31 | 1006.6 |
| 20260504203529 | 73 | 177 | 2.6 | 9.6 | 0.00 | 0.00 | 0.00 | 29 | 1006.6 |
| 20260504203048 | 73 | 0 | 2.6 | 9.6 | 0.00 | 0.00 | 0.00 | 29 | 1006.7 |
| 20260504202526 | 73 | 105 | 1.7 | 6.1 | 0.00 | 0.00 | 0.00 | 31 | 1007.0 |
| 20260504202027 | 73 | 147 | 1.7 | 7.8 | 0.00 | 0.00 | 0.00 | 29 | 1006.9 |
| 20260504201548 | 73 | 144 | 2.6 | 9.6 | 0.00 | 0.00 | 0.00 | 30 | 1006.9 |
| 20260504201029 | 73 | 36 | 2.6 | 9.6 | 0.00 | 0.00 | 0.00 | 29 | 1006.9 |
| 20260504200529 | 73 | 203 | 2.6 | 9.6 | 0.00 | 0.00 | 0.00 | 28 | 1006.9 |
| 20260504200042 | 73 | 279 | 1.7 | 9.6 | 0.00 | 0.00 | 0.00 | 29 | 1006.9 |
| 20260504195526 | 73 | 219 | 0.9 | 10.4 | 0.00 | 0.00 | 0.00 | 30 | 1006.8 |
| 20260504195027 | 73 | 203 | 2.6 | 10.4 | 0.00 | 0.00 | 0.00 | 29 | 1007.0 |
| 20260504194557 | 73 | 64 | 1.7 | 8.7 | 0.00 | 0.00 | 0.00 | 29 | 1006.9 |
| 20260504194027 | 72 | 225 | 1.7 | 8.7 | 0.00 | 0.00 | 0.00 | 29 | 1006.9 |
| 20260504193525 | 72 | 174 | 3.5 | 9.6 | 0.00 | 0.00 | 0.00 | 28 | 1006.8 |
| 20260504193044 | 72 | 49 | 2.6 | 11.3 | 0.00 | 0.00 | 0.00 | 30 | 1006.8 |
| 20260504192525 | 72 | 0 | 2.6 | 13.0 | 0.00 | 0.00 | 0.00 | 30 | 1006.8 |
| 20260504192029 | 72 | 324 | 2.6 | 13.0 | 0.00 | 0.00 | 0.00 | 29 | 1006.8 |
| 20260504191547 | 72 | 134 | 3.5 | 13.0 | 0.00 | 0.00 | 0.00 | 29 | 1006.8 |
| 20260504191027 | 72 | 202 | 2.6 | 12.2 | 0.00 | 0.00 | 0.00 | 29 | 1006.9 |
| 20260504190532 | 72 | 192 | 3.5 | 12.2 | 0.00 | 0.00 | 0.00 | 29 | 1006.9 |
| 20260504190057 | 72 | 5 | 3.5 | 13.0 | 0.00 | 0.00 | 0.00 | 30 | 1007.0 |
| 20260504185530 | 72 | 140 | 1.7 | 13.0 | 0.00 | 0.00 | 0.00 | 29 | 1007.1 |
| 20260504185031 | 72 | 67 | 2.6 | 8.7 | 0.00 | 0.00 | 0.00 | 29 | 1007.2 |
| 20260504184551 | 72 | 84 | 1.7 | 8.7 | 0.00 | 0.00 | 0.00 | 29 | 1007.2 |
| 20260504184026 | 72 | 180 | 2.6 | 9.6 | 0.00 | 0.00 | 0.00 | 31 | 1007.1 |
| 20260504183530 | 72 | 138 | 2.6 | 13.9 | 0.00 | 0.00 | 0.00 | 29 | 1007.1 |
| 20260504183041 | 72 | 244 | 3.5 | 13.9 | 0.00 | 0.00 | 0.00 | 31 | 1007.2 |
| 20260504182527 | 72 | 219 | 2.6 | 11.3 | 0.00 | 0.00 | 0.00 | 31 | 1007.3 |
| 20260504182026 | 71 | 214 | 2.6 | 11.3 | 0.00 | 0.00 | 0.00 | 29 | 1007.4 |
| 20260504181547 | 71 | 232 | 2.6 | 11.3 | 0.00 | 0.00 | 0.00 | 31 | 1007.2 |
| 20260504181029 | 71 | 56 | 1.7 | 13.0 | 0.00 | 0.00 | 0.00 | 31 | 1007.5 |
| 20260504180529 | 71 | 165 | 4.3 | 13.0 | 0.00 | 0.00 | 0.00 | 30 | 1007.6 |
| 20260504180114 | 71 | 44 | 3.5 | 12.2 | 0.00 | 0.00 | 0.00 | 30 | 1007.4 |
| 20260504175528 | 71 | 222 | 2.6 | 10.4 | 0.00 | 0.00 | 0.00 | 32 | 1007.5 |
| 20260504175031 | 71 | 205 | 3.5 | 11.3 | 0.00 | 0.00 | 0.00 | 31 | 1007.5 |
| 20260504174551 | 71 | 140 | 2.6 | 11.3 | 0.00 | 0.00 | 0.00 | 32 | 1007.7 |
| 20260504174030 | 70 | 227 | 2.6 | 7.8 | 0.00 | 0.00 | 0.00 | 31 | 1007.8 |
| 20260504173530 | 70 | 238 | 2.6 | 11.3 | 0.00 | 0.00 | 0.00 | 30 | 1008.0 |
| 20260504173100 | 70 | 209 | 1.7 | 12.2 | 0.00 | 0.00 | 0.00 | 32 | 1008.1 |
| 20260504172532 | 70 | 346 | 2.6 | 12.2 | 0.00 | 0.00 | 0.00 | 31 | 1007.8 |
| 20260504172030 | 70 | 209 | 3.5 | 10.4 | 0.00 | 0.00 | 0.00 | 32 | 1007.7 |
| 20260504171542 | 71 | 328 | 3.5 | 12.2 | 0.00 | 0.00 | 0.00 | 31 | 1007.8 |
| 20260504171030 | 70 | 236 | 1.7 | 12.2 | 0.00 | 0.00 | 0.00 | 33 | 1007.5 |
| 20260504170532 | 70 | 219 | 1.7 | 9.6 | 0.00 | 0.00 | 0.00 | 32 | 1007.7 |
| 20260504151032 | 69 | 184 | 2.6 | 10.4 | 0.00 | 0.00 | 0.00 | 33 | 1008.7 |
| 20260504150530 | 69 | 251 | 3.5 | 8.7 | 0.00 | 0.00 | 0.00 | 35 | 1008.7 |
| 20260504141032 | 66 | 273 | 1.7 | 13.9 | 0.00 | 0.00 | 0.00 | 37 | 1009.4 |
| 20260504140527 | 66 | 184 | 1.7 | 13.9 | 0.00 | 0.00 | 0.00 | 38 | 1009.4 |
| 20260504130529 | 61 | 302 | 1.7 | 7.8 | 0.00 | 0.00 | 0.00 | 41 | 1010.2 |
| 20260504120109 | 54 | 211 | 2.6 | 9.6 | 0.00 | 0.00 | 0.00 | 50 | 1010.5 |
| 20260504110528 | 47 | 0 | 0.0 | 2.6 | 0.00 | 0.00 | 0.00 | 62 | 1010.6 |
| 20260504100529 | 46 | 0 | 0.0 | 1.7 | 0.00 | 0.00 | 0.00 | 60 | 1010.6 |
| 20260504081538 | 45 | 0 | 0.0 | 1.7 | 0.00 | 0.00 | 0.00 | 63 | 1010.4 |
| 20260504081028 | 45 | 0 | 0.0 | 2.6 | 0.00 | 0.00 | 0.00 | 63 | 1010.4 |
| 20260504080529 | 45 | 169 | 0.0 | 2.6 | 0.00 | 0.00 | 0.00 | 63 | 1010.4 |
| 20260504050526 | 40 | 0 | 0.0 | 0.0 | 0.00 | 0.00 | 0.00 | 64 | 1010.4 |
| 20260504050110 | 40 | 0 | 0.0 | 0.0 | 0.00 | 0.00 | 0.00 | 64 | 1010.3 |